Flag for Germany Weather past 2 weeks in Eberswalde, Brandenburg, Germany

Now
68 °F

Broken clouds.


Feels Like: 68 °F
Forecast: 50 / 66 °F
Wind: 3 mph from North

Location: Berlin-Tegel

Current Time: Oct 2, 2014 at 2:48:33 PM

Latest Report: Oct 2, 2014 at 2:20 PM


Visibility: N/A

Pressure: 30.39 "Hg

Humidity: 60%

Dew point: 54 °F

Location of EberswaldeLocation

Historic Weather in Eberswalde — Graph

°F

Eberswalde temperature yesterday

Maximum temperature yesterday: 68 °F (at 3:50 PM)
Minimum temperature yesterday: 55 °F (at 7:20 AM)
Average temperature yesterday: 60 °F

Past Weeks' High & Low Weather Summary

 TemperatureHumidityPressure
High75 °F (Sep 17, 3:20 PM)100% (Sep 21, 3:20 AM)30.39 "Hg (Sep 21, 3:20 AM)
Low43 °F (Sep 28, 5:50 AM)38% (Sep 18, 6:20 PM)29.77 "Hg (Sep 22, 10:50 AM)
Average59 °F78%30.08 "Hg
* Reported Sep 17 1:20 PM — Oct 2 1:50 PM, Eberswalde, Weather by CustomWeather, © 2014

Note: Actual official high and low records may vary slightly from our data, if they occured in-between our weather recording intervals... More about our weather records

Advertising

Eberswalde weather history for previous 24 hours

 ConditionsComfort  
Time TempWeatherWind HumidityBarometerVisibility
1:50 PM
Oct 2
68 °FBroken clouds.3 mph60%30.39 "HgN/A
1:20 PM68 °FScattered clouds.3 mph60%30.39 "Hg6 mi
12:50 PM68 °FPartly sunny.3 mph64%30.39 "Hg5 mi
12:20 PM66 °FPartly sunny.2 mph68%30.39 "Hg5 mi
11:50 AM66 °FPartly sunny.1 mph73%30.39 "Hg5 mi
11:20 AM64 °FPartly sunny.2 mph78%30.39 "Hg4 mi
10:50 AM64 °FClear.2 mph78%30.39 "Hg4 mi
10:20 AM63 °FFog.3 mph83%30.39 "Hg3 mi
9:50 AM61 °FFog.2 mph88%30.39 "Hg2 mi
9:20 AM61 °FFog.1 mph94%30.39 "Hg2 mi
8:50 AM57 °FFog.1 mph94%30.39 "Hg2 mi
8:20 AM55 °FFog.1 mph94%30.39 "Hg2 mi
7:50 AM54 °FLight fog.No wind94%30.36 "Hg1 mi
7:20 AM54 °FLight fog.No wind94%30.36 "Hg1 mi
6:50 AM54 °FFog.1 mph88%30.36 "Hg1 mi
6:20 AM55 °FFog.No wind94%30.36 "Hg3 mi
5:50 AM57 °FFog.1 mph88%30.36 "Hg5 mi
5:20 AM57 °FClear.2 mph94%30.36 "Hg6 mi
4:50 AM57 °FClear.1 mph88%30.36 "Hg10 mi
4:20 AM57 °FPartly cloudy.1 mph94%30.36 "HgN/A
3:50 AM57 °FPassing clouds.1 mph94%30.36 "HgN/A
3:20 AM57 °FClear.1 mph94%30.36 "Hg10 mi
2:50 AM55 °FClear.No wind94%30.36 "Hg10 mi
2:20 AM55 °FClear.1 mph94%30.36 "Hg10 mi
1:50 AM55 °FClear.1 mph94%30.36 "Hg10 mi
1:20 AM55 °FFog.1 mph94%30.36 "HgN/A
12:50 AM54 °FFog.1 mph94%30.33 "Hg5 mi
12:20 AM55 °FFog.1 mph94%30.33 "HgN/A
11:50 PM
Oct 1
55 °FFog.1 mph94%30.33 "HgN/A
11:20 PM57 °FFog.1 mph88%30.33 "HgN/A
10:50 PM55 °FFog.1 mph94%30.33 "HgN/A
10:20 PM57 °FFog.1 mph88%30.33 "HgN/A
9:50 PM57 °FFog.No wind94%30.33 "HgN/A
9:20 PM59 °FFog.1 mph88%30.33 "HgN/A
8:50 PM59 °FFog.1 mph88%30.33 "HgN/A
8:20 PM59 °FFog.1 mph88%30.33 "HgN/A
7:50 PM61 °FFog.1 mph83%30.33 "HgN/A
7:20 PM63 °FScattered clouds.1 mph83%30.33 "HgN/A
6:50 PM63 °FScattered clouds.2 mph83%30.30 "HgN/A
6:20 PM63 °FScattered clouds.2 mph83%30.30 "HgN/A
5:50 PM64 °FScattered clouds.2 mph78%30.30 "HgN/A
5:20 PM64 °FScattered clouds.2 mph78%30.30 "HgN/A
4:50 PM66 °FScattered clouds.2 mph68%30.30 "HgN/A
4:20 PM66 °FPartly sunny.5 mph68%30.30 "HgN/A
3:50 PM68 °FScattered clouds.5 mph64%30.30 "Hg6 mi
3:20 PM66 °FScattered clouds.5 mph68%30.30 "Hg6 mi
2:50 PM66 °FScattered clouds.5 mph73%30.30 "Hg5 mi
2:20 PM64 °FScattered clouds.6 mph78%30.30 "Hg4 mi
Weather by CustomWeather, © 2014

See weather overviewHow to use our weather pages